EW2210 Bisignano IT current weather conditions

sailwx.info

Wind from 355 at 4 knots gusting 6

Air temperature 13.9° C
Dewpoint 5.3° C

Last reported at 2020-Jan-22 14:58 UTC.
Time now 2020-Jan-22 15:51 UTC

Location: N 39°50' E 016°16'.
View on Google Maps.

See reports from other nearby stations

  
Tides and Currents Weather Stations Pressure Air Temp Water Temp Dewpoint Dewpoint Depression Visibility Wind Speed Wind Dir Waves Ship Positions
date/time (UTC)wind fromknots sea level pressurealtimeterstation pressurevisibilityair tempwater tempwave heightnotes
2020-Jan-22 14:58 355 4 gusting 6 13.9
2020-Jan-22 14:49 003 4 gusting 6 14.4
2020-Jan-22 14:40 002 4 gusting 6 14.4
2020-Jan-22 14:31 004 6 gusting 6 13.9
2020-Jan-22 14:13 356 6 gusting 7 14.4
2020-Jan-22 14:04 351 6 gusting 9 14.4
2020-Jan-22 13:55 352 6 gusting 6 14.4
2020-Jan-22 13:46 006 5 gusting 6 15.0
2020-Jan-22 13:37 007 3 gusting 6 15.0
2020-Jan-22 13:28 356 5 gusting 6 14.4
2020-Jan-22 13:19 350 6 gusting 7 13.9
2020-Jan-22 13:10 005 6 gusting 8 13.9
2020-Jan-22 13:01 004 6 gusting 8 13.9
2020-Jan-22 12:52 003 5 gusting 7 14.4
2020-Jan-22 12:43 357 4 gusting 6 14.4
2020-Jan-22 12:34 352 3 gusting 3 15.0
2020-Jan-22 12:25 335 2 gusting 3 15.6
2020-Jan-22 12:16 260 1 gusting 3 16.1
2020-Jan-22 12:07 298 1 gusting 3 15.6
2020-Jan-22 11:58 290 2 gusting 4 15.6
2020-Jan-22 11:49 263 1 gusting 2 15.6
2020-Jan-22 11:40 230 2 gusting 3 14.4
2020-Jan-22 11:31 292 1 gusting 3 13.9
2020-Jan-22 11:22 347 1 gusting 3 13.3
2020-Jan-22 11:13 344 1 gusting 2 13.9
2020-Jan-22 11:04 211 2 gusting 3 13.3
2020-Jan-22 10:55 187 2 gusting 3 13.3
2020-Jan-22 10:46 215 1 gusting 3 12.8
2020-Jan-22 10:37 282 1 gusting 3 12.8
2020-Jan-22 10:28 206 2 gusting 3 12.2
2020-Jan-22 10:19 204 2 gusting 3 12.2
2020-Jan-22 10:10 193 2 gusting 4 11.7
2020-Jan-22 10:01 213 2 gusting 3 11.7
2020-Jan-22 09:52 205 2 gusting 3 11.1
2020-Jan-22 09:43 230 2 gusting 3 11.1
2020-Jan-22 09:34 215 2 gusting 3 11.1
2020-Jan-22 09:25 185 2 gusting 3 10.6
2020-Jan-22 09:16 183 2 gusting 3 10.0
2020-Jan-22 09:07 194 2 gusting 3 9.4
2020-Jan-22 08:58 212 2 gusting 3 8.9
2020-Jan-22 08:49 200 2 gusting 3 8.9
2020-Jan-22 08:40 216 2 gusting 3 8.3
2020-Jan-22 08:31 207 1 gusting 2 7.2
2020-Jan-22 08:22 200 2 gusting 3 6.7
2020-Jan-22 08:13 181 1 gusting 3 6.7
2020-Jan-22 08:04 6.7
2020-Jan-22 07:55 6.1
2020-Jan-22 07:46 5.0
2020-Jan-22 07:37 5.0
2020-Jan-22 07:28 4.4
2020-Jan-22 07:19 4.4
2020-Jan-22 07:10 4.4
2020-Jan-22 07:01 3.9
2020-Jan-22 06:52 3.9
2020-Jan-22 06:43 4.4
2020-Jan-22 06:34 4.4
2020-Jan-22 06:25 4.4
2020-Jan-22 06:16 4.4
2020-Jan-22 06:07 4.4
2020-Jan-22 05:58 4.4
2020-Jan-22 05:49 4.4
2020-Jan-22 05:40 046 4.4
2020-Jan-22 05:31 4.4
2020-Jan-22 05:22 4.4
2020-Jan-22 05:13 5.0
2020-Jan-22 05:04 5.0
2020-Jan-22 04:55 5.6
2020-Jan-22 04:46 5.6
2020-Jan-22 04:37 5.6
2020-Jan-22 04:28 5.6
2020-Jan-22 04:19 5.6
2020-Jan-22 04:10 5.6
2020-Jan-22 04:01 5.6
2020-Jan-22 03:52 5.6
2020-Jan-22 03:43 5.6
2020-Jan-22 03:34 5.6
2020-Jan-22 03:25 5.6
2020-Jan-22 03:16 5.6
2020-Jan-22 03:07 5.6
2020-Jan-22 02:58 5.6
2020-Jan-22 02:49 5.6
2020-Jan-22 02:40 5.6
2020-Jan-22 02:31 5.6
2020-Jan-22 02:22 5.6
2020-Jan-22 02:13 6.1
2020-Jan-22 02:04 6.1
2020-Jan-22 01:55 6.1
2020-Jan-22 01:46 6.7
2020-Jan-22 01:37 6.7
2020-Jan-22 01:28 045 0 gusting 1 6.7
2020-Jan-22 01:19 034 1 gusting 3 6.7
2020-Jan-22 01:10 019 2 gusting 3 7.2
2020-Jan-22 01:01 035 1 gusting 3 7.2
2020-Jan-22 00:52 032 1 gusting 2 7.2
2020-Jan-22 00:43 050 0 gusting 2 7.2
2020-Jan-22 00:34 027 1 gusting 3 7.2
2020-Jan-22 00:25 036 0 gusting 3 7.2
2020-Jan-22 00:16 7.2
2020-Jan-22 00:07 7.2
2020-Jan-21 23:58 7.8
2020-Jan-21 23:49 7.8
2020-Jan-21 23:40 7.8
2020-Jan-21 23:31 181 0 gusting 1 7.8
2020-Jan-21 23:22 7.8
2020-Jan-21 23:13 7.8
2020-Jan-21 23:04 176 7.8
2020-Jan-21 22:55 7.8
2020-Jan-21 22:46 7.8
2020-Jan-21 22:37 7.8
2020-Jan-21 22:28 8.3
2020-Jan-21 22:19 8.3
2020-Jan-21 22:10 8.3
2020-Jan-21 22:01 8.3
2020-Jan-21 21:52 026 0 gusting 2 9.4
2020-Jan-21 21:43 001 9.4
2020-Jan-21 21:34 9.4
2020-Jan-21 21:25 9.4
2020-Jan-21 21:16 9.4
2020-Jan-21 21:07 9.4
2020-Jan-21 20:58 9.4
2020-Jan-21 20:49 9.4
2020-Jan-21 20:40 9.4
2020-Jan-21 20:31 9.4
2020-Jan-21 20:22 9.4
2020-Jan-21 20:13 9.4
2020-Jan-21 20:04 9.4
2020-Jan-21 19:55 9.4
2020-Jan-21 19:46 024 9.4
2020-Jan-21 19:37 040 1 gusting 1 8.9
2020-Jan-21 19:28 021 2 gusting 2 8.9
2020-Jan-21 19:19 034 8.9
2020-Jan-21 19:10 8.9
2020-Jan-21 19:01 009 0 gusting 1 9.4
2020-Jan-21 18:52 011 1 gusting 2 8.9
2020-Jan-21 18:43 018 2 gusting 3 8.9
2020-Jan-21 18:34 004 2 gusting 3 8.9
2020-Jan-21 18:25 001 2 gusting 3 8.9
2020-Jan-21 18:16 007 2 gusting 3 8.9
2020-Jan-21 18:07 004 3 gusting 3 8.9
2020-Jan-21 17:58 003 2 gusting 3 8.9
2020-Jan-21 17:49 007 2 gusting 3 8.9
2020-Jan-21 17:40 006 2 gusting 3 8.9
2020-Jan-21 17:31 005 2 gusting 2 9.4
2020-Jan-21 17:22 014 2 gusting 3 9.4
2020-Jan-21 17:13 004 2 gusting 3 10.0
2020-Jan-21 17:04 357 2 gusting 3 10.0
2020-Jan-21 16:55 006 3 gusting 5 10.6
2020-Jan-21 16:46 005 4 gusting 5 10.6
2020-Jan-21 16:37 038 4 gusting 5 10.6
2020-Jan-21 16:28 357 4 gusting 5 10.6
2020-Jan-21 16:19 013 4 gusting 5 10.6
2020-Jan-21 16:10 006 3 gusting 6 10.6
2020-Jan-21 16:01 349 4 gusting 6 10.6
2020-Jan-21 15:52 011 4 gusting 6 11.1
2020-Jan-21 15:43 004 4 gusting 6 11.1
2020-Jan-21 15:34 011 4 gusting 5 11.1
2020-Jan-21 15:25 014 5 gusting 6 11.1
2020-Jan-21 15:16 354 6 gusting 7 11.1
2020-Jan-21 15:07 351 7 gusting 10 11.1
2020-Jan-21 14:58 345 6 gusting 9 11.1
2020-Jan-21 14:49 018 5 gusting 6 11.7
2020-Jan-21 14:40 004 6 gusting 8 11.7
2020-Jan-21 14:31 359 6 gusting 8 11.7
2020-Jan-21 14:22 349 7 gusting 12 11.7
2020-Jan-21 14:13 351 8 gusting 14 11.7
2020-Jan-21 14:04 358 6 gusting 9 11.7
2020-Jan-21 13:55 011 7 gusting 9 11.7
2020-Jan-21 13:46 013 8 gusting 10 11.7
2020-Jan-21 13:37 356 8 gusting 9 11.7
2020-Jan-21 13:28 004 6 gusting 8 12.2
2020-Jan-21 13:19 009 6 gusting 8 12.2
2020-Jan-21 13:10 011 5 gusting 6 12.2
2020-Jan-21 13:01 001 6 gusting 8 12.8
2020-Jan-21 12:52 354 6 gusting 8 12.8
2020-Jan-21 12:43 009 2 gusting 4 13.3
2020-Jan-21 12:34 239 3 gusting 6 13.3
2020-Jan-21 12:25 206 1 gusting 3 12.2
2020-Jan-21 12:16 011 1 gusting 3 12.2
2020-Jan-21 12:07 353 2 gusting 3 12.2
2020-Jan-21 11:58 001 3 gusting 4 12.2
2020-Jan-21 11:49 347 2 gusting 4 12.8
2020-Jan-21 11:40 212 2 gusting 3 13.3
2020-Jan-21 11:31 265 2 gusting 3 13.3
2020-Jan-21 11:22 322 1 gusting 3 12.2
2020-Jan-21 11:13 045 12.2
2020-Jan-21 11:04 11.7
2020-Jan-21 10:55 358 0 gusting 2 11.7
2020-Jan-21 10:46 002 0 gusting 1 12.2
2020-Jan-21 10:37 344 12.2
2020-Jan-21 10:28 358 0 gusting 1 12.2
2020-Jan-21 10:19 350 0 gusting 1 12.2
2020-Jan-21 10:10 020 0 gusting 1 12.2
2020-Jan-21 10:01 345 0 gusting 4 12.2
2020-Jan-21 09:52 030 1 gusting 3 12.2
2020-Jan-21 09:43 007 1 gusting 3 11.7
2020-Jan-21 09:34 344 1 gusting 3 11.1
2020-Jan-21 09:25 007 0 gusting 1 11.1
2020-Jan-21 09:16 031 0 gusting 3 10.6
2020-Jan-21 09:07 029 0 gusting 1 10.6
2020-Jan-21 08:58 013 0 gusting 1 10.6
2020-Jan-21 08:49 345 0 gusting 2 10.6
2020-Jan-21 08:40 333 0 gusting 2 10.6
2020-Jan-21 08:31 001 0 gusting 1 10.6
2020-Jan-21 08:22 350 10.6
2020-Jan-21 08:13 009 0 gusting 1 10.6
2020-Jan-21 08:04 356 0 gusting 1 10.6
2020-Jan-21 07:55 353 1 gusting 3 10.6
2020-Jan-21 07:46 003 1 gusting 3 10.0
2020-Jan-21 07:37 356 2 gusting 6 10.0
2020-Jan-21 07:28 355 2 gusting 6 10.0
2020-Jan-21 07:19 353 2 gusting 6 10.0
2020-Jan-21 07:10 001 3 gusting 5 10.0
2020-Jan-21 07:01 355 2 gusting 4 8.9
2020-Jan-21 06:52 346 4 gusting 5 8.9
2020-Jan-21 06:43 005 2 gusting 5 8.9
2020-Jan-21 06:34 356 2 gusting 3 8.9
2020-Jan-21 06:25 004 1 gusting 3 8.9
2020-Jan-21 06:16 351 1 gusting 4 8.9
2020-Jan-21 06:07 354 1 gusting 3 8.9
2020-Jan-21 05:58 011 2 gusting 6 8.9
2020-Jan-21 05:49 357 3 gusting 3 8.9
2020-Jan-21 05:40 356 3 gusting 5 8.9
2020-Jan-21 05:31 353 3 gusting 4 8.9
2020-Jan-21 05:22 010 4 gusting 5 8.9
2020-Jan-21 05:13 019 5 gusting 7 8.9
2020-Jan-21 05:04 005 4 gusting 5 8.9
2020-Jan-21 04:55 351 4 gusting 8 8.9
2020-Jan-21 04:46 351 4 gusting 6 8.9
2020-Jan-21 04:37 003 4 gusting 6 8.9
2020-Jan-21 04:28 007 2 gusting 4 8.9
2020-Jan-21 04:19 001 3 gusting 6 8.9
2020-Jan-21 04:10 009 4 gusting 6 8.9
2020-Jan-21 04:01 357 4 gusting 6 8.9
2020-Jan-21 03:52 008 4 gusting 7 8.9
2020-Jan-21 03:43 021 4 gusting 7 8.3
2020-Jan-21 03:34 010 3 gusting 4 8.3
2020-Jan-21 03:25 011 5 gusting 6 8.9
2020-Jan-21 03:16 003 6 gusting 6 8.9
2020-Jan-21 03:07 354 5 gusting 6 9.4
2020-Jan-21 02:58 013 5 gusting 7 9.4
2020-Jan-21 02:49 008 6 gusting 9 9.4
2020-Jan-21 02:40 351 6 gusting 8 9.4
2020-Jan-21 02:31 007 4 gusting 6 9.4
2020-Jan-21 02:22 017 5 gusting 6 9.4
2020-Jan-21 02:13 356 4 gusting 6 9.4
2020-Jan-21 02:04 356 3 gusting 6 9.4
2020-Jan-21 01:55 016 2 gusting 4 10.0
2020-Jan-21 01:46 002 4 gusting 6 10.0
2020-Jan-21 01:37 016 4 gusting 6 10.0
2020-Jan-21 01:28 008 3 gusting 6 9.4
2020-Jan-21 01:19 356 4 gusting 6 9.4
2020-Jan-21 01:10 006 5 gusting 9 10.0
2020-Jan-21 01:01 356 5 gusting 6 10.0
2020-Jan-21 00:52 347 4 gusting 6 10.0
2020-Jan-21 00:43 007 4 gusting 6 10.0
2020-Jan-21 00:34 358 4 gusting 6 10.0
2020-Jan-21 00:25 004 5 gusting 7 10.0
2020-Jan-21 00:16 003 6 gusting 8 10.0
2020-Jan-21 00:07 061 7 gusting 8 10.0
2020-Jan-20 23:58 010 6 gusting 8 10.0
2020-Jan-20 23:49 358 6 gusting 9 10.0
2020-Jan-20 23:40 014 6 gusting 8 10.0
2020-Jan-20 23:31 355 6 gusting 8 10.0
2020-Jan-20 23:22 348 6 gusting 8 10.0
2020-Jan-20 23:13 358 6 gusting 7 10.0
2020-Jan-20 23:04 001 6 gusting 9 10.0
2020-Jan-20 22:55 004 7 gusting 9 10.0
2020-Jan-20 22:46 358 7 gusting 9 10.0
2020-Jan-20 22:37 006 6 gusting 10 10.0
2020-Jan-20 22:28 351 6 gusting 9 10.0
2020-Jan-20 22:19 354 2 gusting 6 10.0
2020-Jan-20 22:10 352 4 gusting 6 10.0
2020-Jan-20 22:01 358 5 gusting 6 10.0
2020-Jan-20 21:52 001 6 gusting 9 10.0
2020-Jan-20 21:43 355 5 gusting 6 10.0
2020-Jan-20 21:34 357 4 gusting 6 10.0
2020-Jan-20 21:25 008 1 gusting 4 10.0
2020-Jan-20 21:16 353 10.0